This is the latest recevied weather packets stored in our database for station/object K4DNM. If no packets are shown the sender has not sent any weather packets the latest 10 day(s).
| Time | Temp. | Humidity | Pressure | Rain* | Wind** | Luminosity | Snow |
|---|---|---|---|---|---|---|---|
| 1777927528 | 25.56° C | 36% | 1012.5 hPa | 0 mm | - | 411 W/m² | - |
| 1777927227 | 26.11° C | 34% | 1012.6 hPa | 0 mm | - | 435 W/m² | - |
| 1777926927 | 26.11° C | 35% | 1012.7 hPa | 0 mm | - | 437 W/m² | - |
| 1777926628 | 26.11° C | 35% | 1012.7 hPa | 0 mm | - | 488 W/m² | - |
| 1777926328 | 25.56° C | 35% | 1012.8 hPa | 0 mm | - | 518 W/m² | - |
| 1777926029 | 25.56° C | 35% | 1012.8 hPa | 0 mm | - | 544 W/m² | - |
| 1777925729 | 26.11° C | 34% | 1012.7 hPa | 0 mm | - | 559 W/m² | - |
| 1777925430 | 26.67° C | 34% | 1012.9 hPa | 0 mm | - | 508 W/m² | - |
| 1777925129 | 26.67° C | 35% | 1012.8 hPa | 0 mm | - | 572 W/m² | - |
| 1777924829 | 26.11° C | 35% | 1012.8 hPa | 0 mm | - | 574 W/m² | - |
| 1777924529 | 26.67° C | 36% | 1012.9 hPa | 0 mm | - | 617 W/m² | - |
| 1777924285 | 26.67° C | 33% | 1012.8 hPa | 0 mm | - | 645 W/m² | - |
| 1777923925 | 26.67° C | 33% | 1012.9 hPa | 0 mm | - | 625 W/m² | - |
| 1777923625 | 26.67° C | 31% | 1012.9 hPa | 0 mm | - | 648 W/m² | - |
| 1777923325 | 26.67° C | 31% | 1013 hPa | 0 mm | - | 665 W/m² | - |
| 1777923025 | 26.67° C | 31% | 1013.1 hPa | 0 mm | - | 709 W/m² | - |
| 1777922725 | 26.67° C | 33% | 1013.3 hPa | 0 mm | - | 749 W/m² | - |
| 1777922426 | 26.67° C | 34% | 1013.2 hPa | 0 mm | - | 766 W/m² | - |
| 1777922186 | 26.11° C | 33% | 1013.3 hPa | 0 mm | - | 790 W/m² | - |
| 1777921826 | 26.11° C | 33% | 1013.3 hPa | 0 mm | - | 805 W/m² | - |
| 1777921526 | 26.11° C | 33% | 1013.4 hPa | 0 mm | - | 811 W/m² | - |
| 1777921226 | 26.11° C | 35% | 1013.3 hPa | 0 mm | - | 829 W/m² | - |
| 1777920926 | 26.11° C | 35% | 1013.5 hPa | 0 mm | - | 840 W/m² | - |
| 1777920623 | 26.67° C | 34% | 1013.6 hPa | 0 mm | - | 852 W/m² | - |
| 1777920323 | 26.67° C | 35% | 1013.4 hPa | 0 mm | - | 860 W/m² | - |
* Rain latest hour (hover to see other rain measurements)
** Current wind speed in m/s (hover to see current wind gust speed)